(80) Sappho
ephemeris date magn radius delta ra dec elong phase
Today5 Sep 202613.42.674 AU3.659 AU10h12m+04°47'10.6°4.0°
Opposition31 Mar 202711.72.741 AU1.747 AU12h29m-10°12'173.5°2.4°
(80) Sappho - 2026-09-05
astro.vanbuitenen.nl


 
-1 year
-1 month
-1 day
Now
+1 day
+1 month
+1 year

The interactive orbit chart above shows the body's path through the solar system and its position at the given date. Green and blue lines are shown perpendicular to the ecliptic plane: Green if the path is above the ecliptic plane, blue if it is below. (Left-click and drag to rotate the view; Right-click and drag to move the view; Use scroll wheel to zoom in our out.)

The orbital elements of Sappho are:

            e (Eccentricity)                : 0.1999656
            a (Semimajor axis)              : 2.2968900
            i (Inclination)                 : 8.67392
            Ω (Longitude of ascending node) : 218.59506
            ω (Argument of perihelion)      : 139.80982
            M (Mean anomaly)                : 113.78402
            Epoch                           : 2026 Jun 09

            L (Longitude of perihelion)     : 178.72947
            B (Latitude of perihelion)      : 5.58500
            P (Orbital period in years)     : 3.48            
        

The light curve chart below shows the estimated development of the minor planet's magnitude.


The all-sky chart below shows the path of the minor planet over the same period as the light curve. The current position is marked yellow.





The following chart shows the path of the minor planet in the next few days. The field of view is optimized for (~10x50) binoculars and finderscopes.




Ephemerides:
Date       Time       RA (2000)    DEC (2000)    delta   radius  elong  phase   PA    magn
2026-09-05 00:00 UT   10 12 19.8   +04 47 28     3.659    2.674   10.6    4.0   257   13.4 
2026-09-05 08:28 UT   10 12 52.6   +04 44 26     3.659    2.675   10.8    4.0   258   13.4 
2026-09-06 00:00 UT   10 13 52.6   +04 38 52     3.658    2.675   11.1    4.1   259   13.4 
2026-09-07 00:00 UT   10 15 25.3   +04 30 14     3.656    2.676   11.5    4.3   261   13.4 
2026-09-08 00:00 UT   10 16 57.8   +04 21 35     3.655    2.677   12.0    4.5   262   13.4 
2026-09-09 00:00 UT   10 18 30.1   +04 12 54     3.653    2.679   12.5    4.7   263   13.4 
2026-09-10 00:00 UT   10 20 02.3   +04 04 11     3.651    2.680   13.0    4.8   265   13.4 
2026-09-11 00:00 UT   10 21 34.3   +03 55 27     3.650    2.681   13.5    5.0   266   13.4 
2026-09-12 00:00 UT   10 23 06.1   +03 46 41     3.647    2.682   14.0    5.2   267   13.4 
2026-09-13 00:00 UT   10 24 37.7   +03 37 54     3.645    2.683   14.5    5.4   268   13.5 
2026-09-14 00:00 UT   10 26 09.2   +03 29 06     3.643    2.684   15.0    5.6   269   13.5 
2026-09-15 00:00 UT   10 27 40.4   +03 20 16     3.640    2.685   15.5    5.8   270   13.5 
2026-09-16 00:00 UT   10 29 11.5   +03 11 25     3.638    2.686   16.1    5.9   271   13.5 
2026-09-17 00:00 UT   10 30 42.4   +03 02 33     3.635    2.687   16.6    6.1   272   13.5 
2026-09-18 00:00 UT   10 32 13.1   +02 53 40     3.632    2.688   17.1    6.3   272   13.5 
2026-09-19 00:00 UT   10 33 43.7   +02 44 45     3.629    2.689   17.7    6.5   273   13.5 
2026-09-20 00:00 UT   10 35 14.0   +02 35 50     3.626    2.690   18.2    6.7   274   13.5 
2026-09-21 00:00 UT   10 36 44.1   +02 26 54     3.623    2.691   18.7    6.9   274   13.5 
2026-09-22 00:00 UT   10 38 14.1   +02 17 56     3.619    2.692   19.3    7.1   275   13.5 
2026-09-23 00:00 UT   10 39 43.8   +02 08 58     3.616    2.693   19.8    7.3   276   13.5 
2026-09-24 00:00 UT   10 41 13.3   +01 59 59     3.612    2.694   20.4    7.4   276   13.5 
2026-09-25 00:00 UT   10 42 42.7   +01 50 59     3.608    2.695   20.9    7.6   277   13.5 


    Terminology:
            
    delta:  distance between minor planet and earth in AU
    radius: distance between minor planet and sun in AU
    magn:   magnitude (brightness) estimate    
    ra:     right ascension in hours (24h = 360deg)
    dec:    declination in degrees
    elong:  elongation in degrees (angle sun-earth-minor planet)    
    phase:  phase angle in degrees (angle sun-minor planet-earth)        
    AU:     Astronomical Unit (mean distance between earth and sun: 149597870.7 km
    

Orbital elements provided by the MPC (Minor Planet Center).
Calculations by a modified version of AAPlus, a C# implementation of the AA+ project by PJ Naughter from the algorithms presented in the book "Astronomical Algorithms" by Jean Meeus.
NGC2000 dso catalog and star labels from VizieR as provided by the Strasbourg astronomical Data Center.
Tycho2 catalog from the ESO archive.